{"data":{"norad_id":68381,"epoch":"2026-09-19T09:02:22.939296Z","epoch_age_seconds":144667,"freshness":"FRESH","line1":"1 68381U 26063B   26262.37665439  .00011768  00000+0  36623-3 0  9999","line2":"2 68381  97.2849  43.2123 0001379  90.4793 269.6608 15.33448021 27573","mean_motion":15.33448021,"eccentricity":0.0001379,"inclination_deg":97.2849,"raan_deg":43.2123,"arg_perigee_deg":90.4793,"mean_anomaly_deg":269.6608,"bstar":0.00036623,"rev_number":2757,"period_min":93.906019655035,"perigee_km":464.59044386578,"apogee_km":466.47792837891,"semimajor_km":6843.6711861223,"source":"CELESTRAK","updated_at":"2026-09-20T09:00:43.892080Z"}}